Weather History for KPNC - March, 2014

Change the Weather History Date:

Friday, March 7, 2014

  Actual Average Record
Temperature  
Mean Temperature 48 °F -  
Max Temperature 59 °F 60 °F 83 °F (1974)
Min Temperature 37 °F 35 °F 18 °F (1948)
Degree Days  
Heating Degree Days 17    
Moisture  
Dew Point 34 °F    
Average Humidity 60    
Maximum Humidity 79    
Minimum Humidity 41    
Precipitation  
Precipitation 0.00 in - - ()
Sea Level Pressure  
Sea Level Pressure 29.85 in    
Wind  
Wind Speed 12 mph (SE)    
Max Wind Speed 21 mph    
Max Gust Speed 32 mph    
Visibility 9 miles    
Events      
Averages and records for this station are not official NWS values.
T = Trace of Precipitation, MM = Missing Value Source: NWS Daily Summary

Daily Weather History Graph

Daily Weather History Graph

Search for Another Location

Airport or City:

Trip Planner

Search our weather history database for the weather conditions in past years. The results will help you decide how hot, cold, wet, or windy it might be!

Date:

Astronomy

Mar. 07, 2014 Rise Set
Actual Time 6:50 AM CST 6:28 PM CST
Civil Twilight 6:24 AM CST 6:54 PM CST
Nautical Twilight 5:55 AM CST 7:24 PM CST
Astronomical Twilight 5:24 AM CST 7:54 PM CST
Moon 10:54 AM CST (3/7) 12:25 AM CST (3/7)
Length of Visible Light 12h 29m
Length of Day
11h 37m
Waxing Crescent, 42% of the Moon is Illuminated
Mar 7
Waxing Crescent
Mar 8
First Quarter
Mar 16
Full
Mar 23
Last Quarter
Mar 30
New

Hourly Weather History & Observations

Time (CST) Temp. Windchill Dew Point Humidity Pressure Visibility Wind Dir Wind Speed Gust Speed Precip Events Conditions
12:53 AM 43.0 °F 37.2 °F 34.0 °F 71% 29.94 in 8.0 mi South 10.4 mph 20.7 mph N/A   Clear
1:53 AM 41.0 °F 35.2 °F 33.1 °F 73% 29.94 in 8.0 mi SSE 9.2 mph - N/A   Clear
2:53 AM 37.9 °F 30.9 °F 32.0 °F 79% 29.91 in 7.0 mi SE 10.4 mph - N/A   Clear
3:53 AM 39.9 °F 32.5 °F 32.0 °F 73% 29.89 in 8.0 mi SSE 12.7 mph - N/A   Clear
4:53 AM 39.9 °F 32.5 °F 32.0 °F 73% 29.89 in 8.0 mi SSE 12.7 mph - N/A   Clear
5:53 AM 39.9 °F 32.5 °F 32.0 °F 73% 29.88 in 8.0 mi SE 12.7 mph - N/A   Clear
6:53 AM 39.9 °F 31.8 °F 33.1 °F 77% 29.87 in 7.0 mi SSE 15.0 mph - N/A   Clear
7:53 AM 42.1 °F 33.9 °F 33.1 °F 70% 29.87 in 7.0 mi SSE 17.3 mph - N/A   Clear
8:53 AM 48.0 °F - 35.1 °F 61% 29.85 in 9.0 mi SSE 15.0 mph 26.5 mph N/A   Clear
9:53 AM 50.0 °F - 35.1 °F 57% 29.82 in 10.0 mi SSE 18.4 mph 27.6 mph N/A   Clear
10:53 AM 57.0 °F - 36.0 °F 45% 29.79 in 10.0 mi SSE 20.7 mph 32.2 mph N/A   Clear
11:53 AM 59.0 °F - 36.0 °F 42% 29.78 in 10.0 mi South 18.4 mph 27.6 mph N/A   Clear
12:53 PM 57.9 °F - 35.1 °F 42% 29.77 in 10.0 mi South 13.8 mph 26.5 mph N/A   Clear
1:53 PM 57.9 °F - 35.1 °F 42% 29.76 in 10.0 mi South 11.5 mph 21.9 mph N/A   Clear
2:53 PM 59.0 °F - 36.0 °F 42% 29.76 in 10.0 mi South 13.8 mph 18.4 mph N/A   Clear
3:53 PM 59.0 °F - 35.1 °F 41% 29.77 in 10.0 mi SSE 17.3 mph 24.2 mph N/A   Clear
4:53 PM 59.0 °F - 36.0 °F 42% 29.78 in 10.0 mi SSE 15.0 mph - N/A   Clear
5:53 PM 55.9 °F - 35.1 °F 45% 29.80 in 10.0 mi SSE 11.5 mph - N/A   Clear
6:53 PM 53.1 °F - 34.0 °F 48% 29.82 in 10.0 mi East 4.6 mph - N/A   Clear
7:53 PM 42.1 °F 38.4 °F 33.1 °F 70% 29.86 in 10.0 mi NNE 5.8 mph - N/A   Clear
8:53 PM 43.0 °F 39.5 °F 34.0 °F 71% 29.88 in 10.0 mi NNE 5.8 mph - N/A   Clear
9:53 PM 44.1 °F 40.8 °F 34.0 °F 68% 29.91 in 10.0 mi NE 5.8 mph - N/A   Mostly Cloudy
10:53 PM 46.0 °F 38.8 °F 37.0 °F 71% 29.94 in 8.0 mi North 18.4 mph - N/A   Clear
11:53 PM 43.0 °F 35.4 °F 35.1 °F 74% 29.96 in 6.0 mi NNE 16.1 mph - N/A   Haze